Date String (YYYY-MM-DD hh:mm:ss) UTC,Instrument flags,Ambient pressure (hPa),Sample flow (lpm),Bypass flow (lpm),Sample temperature (°C),Ambient temperature (°C),ASC tube jacket temperature (°C),LED temperature (°C),Box temperature (°C),Sample RH (%),Span deviation,Mass concentration (μg/m³),Mass concentration (μg/m³),Mass concentration (μg/m³)
DateTimeUTC,F1_M11,P_M11,Q1_M11,Q2_M11,T1_M11,T2_M11,T3_M11,T4_M11,T5_M11,U1_M11,ZSPAN_M11,X0_M11,X2_M11,X1_M11
2021-09-04 03:00:00,,0830.8,4.99,0.00,29.4,27.9,00.0,38.5,31.1,33.8,0002.1,0012.67,0009.62,0008.90
2021-09-04 03:01:00,,0830.8,5.01,0.00,29.4,28.1,00.0,38.5,31.2,34.0,0002.2,0012.76,0009.70,0008.96
2021-09-04 03:02:00,,0830.7,5.00,0.00,29.5,28.3,00.0,38.5,31.3,34.2,0002.2,0012.85,0009.79,0009.03
2021-09-04 03:03:00,,0830.8,5.01,0.00,29.5,28.4,00.0,38.6,31.3,34.3,0002.0,0012.82,0009.82,0009.09
2021-09-04 03:04:00,,0830.9,5.01,0.00,29.5,28.5,00.0,38.6,31.3,34.5,0001.6,0012.98,0009.90,0009.16
2021-09-04 03:05:00,,0830.9,4.99,0.00,29.6,28.6,00.0,38.6,31.4,35.0,0001.4,0013.19,0010.01,0009.25
2021-09-04 03:06:00,,0831.0,4.99,0.00,29.7,28.6,00.0,38.6,31.5,35.1,0001.3,0013.50,0010.10,0009.32
2021-09-04 03:07:00,,0831.1,5.01,0.00,30.0,28.7,00.0,38.6,31.7,34.5,0001.4,0013.62,0010.19,0009.38
2021-09-04 03:08:00,,0831.0,5.01,0.00,30.1,28.8,00.0,38.7,31.7,34.4,0001.6,0013.80,0010.23,0009.43
2021-09-04 03:09:00,,0831.1,5.00,0.00,30.2,28.9,00.0,38.7,31.7,34.5,0001.8,0014.04,0010.25,0009.47
2021-09-04 03:10:00,,0831.2,4.99,0.00,30.3,28.9,00.0,38.8,31.7,34.6,0001.6,0014.13,0010.25,0009.46
2021-09-04 03:11:00,,0831.2,5.01,0.00,30.3,27.8,00.0,38.8,31.4,34.7,0001.3,0014.33,0010.30,0009.46
2021-09-04 03:12:00,,0831.2,4.98,0.00,30.1,26.3,00.0,38.8,31.0,34.9,0001.2,0014.46,0010.35,0009.48
2021-09-04 03:13:00,,0831.2,5.00,0.00,30.1,26.1,00.0,38.8,31.0,35.3,0001.0,0014.58,0010.35,0009.47
2021-09-04 03:14:00,,0831.2,5.01,0.00,30.2,26.5,00.0,38.8,31.2,35.1,0001.1,0014.71,0010.37,0009.44
2021-09-04 03:15:00,,0831.2,5.00,0.00,30.5,26.9,00.0,38.8,31.4,34.6,0001.1,0014.76,0010.35,0009.40
2021-09-04 03:16:00,,0831.3,5.00,0.00,30.6,27.3,00.0,38.8,31.4,34.3,0001.2,0014.91,0010.30,0009.33
2021-09-04 03:17:00,,0831.3,5.00,0.00,30.7,27.7,00.0,38.9,31.5,34.2,0001.2,0014.79,0010.24,0009.26
2021-09-04 03:18:00,,0831.3,4.99,0.00,30.8,27.9,00.0,38.9,31.5,34.1,0000.9,0014.69,0010.17,0009.21
2021-09-04 03:19:00,,0831.3,5.00,0.00,30.8,28.1,00.0,39.0,31.5,34.1,0000.6,0014.50,0010.13,0009.19
2021-09-04 03:20:00,,0831.3,5.00,0.00,30.8,28.3,00.0,39.1,31.6,34.2,0000.4,0014.43,0010.18,0009.19
2021-09-04 03:21:00,,0831.3,4.99,0.00,30.8,28.5,00.0,39.2,31.6,34.2,0000.5,0014.39,0010.18,0009.18
2021-09-04 03:22:00,,0831.4,5.01,0.00,30.8,28.6,00.0,39.2,31.7,34.1,0000.9,0014.21,0010.12,0009.17
2021-09-04 03:23:00,,0831.5,4.99,0.00,30.8,28.7,00.0,39.3,31.7,34.1,0000.9,0014.07,0010.05,0009.15
2021-09-04 03:24:00,,0831.5,4.99,0.00,30.8,28.8,00.0,39.3,31.8,34.0,0001.3,0014.07,0010.07,0009.16
2021-09-04 03:25:00,,0831.6,5.01,0.00,30.8,28.8,00.0,39.3,31.8,34.1,0001.4,0014.13,0010.09,0009.17
2021-09-04 03:26:00,,0831.5,5.01,0.00,30.8,28.9,00.0,39.4,31.8,34.0,0001.5,0014.05,0010.09,0009.18
2021-09-04 03:27:00,,0831.6,4.98,0.00,30.8,29.0,00.0,39.4,31.9,34.0,0001.4,0014.00,0010.15,0009.21
2021-09-04 03:28:00,,0831.7,5.00,0.00,30.8,29.0,00.0,39.4,31.9,33.9,0001.4,0013.84,0010.17,0009.24
2021-09-04 03:29:00,,0831.7,5.02,0.00,30.8,29.1,00.0,39.5,31.9,33.9,0001.5,0013.94,0010.22,0009.27
2021-09-04 03:30:00,,0831.7,5.00,0.00,30.8,29.0,00.0,39.5,31.9,33.9,0001.8,0014.07,0010.29,0009.29
2021-09-04 03:31:00,,0831.7,5.00,0.00,30.7,27.5,00.0,39.5,31.6,34.0,0001.9,0014.80,0010.31,0009.30
2021-09-04 03:32:00,,0831.7,5.00,0.00,30.6,26.4,00.0,39.5,31.3,34.3,0001.6,0015.52,0010.36,0009.35
2021-09-04 03:33:00,,0831.7,5.01,0.00,30.4,26.3,00.0,39.4,31.3,34.5,0001.2,0015.85,0010.48,0009.39
2021-09-04 03:34:00,,0831.7,4.99,0.00,30.3,26.7,00.0,39.4,31.3,34.7,0001.4,0015.97,0010.55,0009.41
2021-09-04 03:35:00,,0831.7,5.00,0.00,30.3,27.2,00.0,39.3,31.3,34.8,0001.3,0015.96,0010.54,0009.39
2021-09-04 03:36:00,,0831.7,5.00,0.00,30.2,27.5,00.0,39.3,31.4,34.9,0001.2,0015.92,0010.52,0009.38
2021-09-04 03:37:00,,0831.7,4.99,0.00,30.2,27.8,00.0,39.3,31.4,35.0,0001.2,0015.88,0010.50,0009.37
2021-09-04 03:38:00,,0831.7,5.01,0.00,30.3,28.1,00.0,39.3,31.5,35.0,0001.2,0015.73,0010.43,0009.34
2021-09-04 03:39:00,,0831.7,5.00,0.00,30.4,28.3,00.0,39.3,31.7,34.6,0001.3,0015.67,0010.36,0009.29
2021-09-04 03:40:00,,0831.7,5.00,0.00,30.5,28.4,00.0,39.3,31.7,34.4,0001.3,0015.50,0010.27,0009.25
2021-09-04 03:41:00,,0831.7,5.00,0.00,30.6,28.5,00.0,39.3,31.7,34.2,0001.3,0015.31,0010.14,0009.18
2021-09-04 03:42:00,,0831.7,5.00,0.00,30.6,28.6,00.0,39.3,31.7,34.1,0001.1,0014.58,0009.99,0009.09
2021-09-04 03:43:00,,0831.7,5.00,0.00,30.6,28.7,00.0,39.3,31.8,34.0,0001.0,0013.82,0009.83,0008.98
2021-09-04 03:44:00,,0831.7,5.01,0.00,30.6,28.8,00.0,39.3,31.8,34.0,0001.1,0013.92,0009.66,0008.89
2021-09-04 03:45:00,,0831.7,5.00,0.00,30.6,28.9,00.0,39.4,31.8,33.9,0000.9,0014.16,0009.54,0008.82
2021-09-04 03:46:00,,0831.8,5.00,0.00,30.6,29.0,00.0,39.4,31.9,33.8,0000.9,0014.01,0009.44,0008.75
2021-09-04 03:47:00,,0831.7,5.00,0.00,30.7,29.0,00.0,39.4,31.9,33.7,0000.9,0013.94,0009.33,0008.68
2021-09-04 03:48:00,,0831.7,5.00,0.00,30.7,29.1,00.0,39.4,31.9,33.7,0000.9,0014.11,0009.25,0008.61
2021-09-04 03:49:00,,0831.7,5.00,0.00,30.7,29.1,00.0,39.5,32.0,33.7,0000.8,0014.18,0009.18,0008.55
2021-09-04 03:50:00,,0831.7,5.00,0.00,30.7,29.2,00.0,39.5,32.0,33.6,0000.9,0014.10,0009.14,0008.52
2021-09-04 03:51:00,,0831.7,5.01,0.00,30.7,29.2,00.0,39.5,32.0,33.6,0000.6,0013.99,0009.08,0008.47
2021-09-04 03:52:00,,0831.7,5.00,0.00,30.6,28.2,00.0,39.5,31.8,33.6,0000.5,0014.00,0009.05,0008.45
2021-09-04 03:53:00,,0831.7,5.00,0.00,30.5,26.6,00.0,39.5,31.3,33.9,0000.6,0013.79,0009.05,0008.45
2021-09-04 03:54:00,,0831.8,5.00,0.00,30.4,26.3,00.0,39.4,31.3,34.2,0000.8,0013.80,0009.07,0008.44
2021-09-04 03:55:00,,0831.7,5.00,0.00,30.2,26.6,00.0,39.4,31.3,34.3,0001.0,0013.44,0009.08,0008.42
2021-09-04 03:56:00,,0831.7,5.00,0.00,30.2,27.0,00.0,39.3,31.3,34.4,0001.1,0013.38,0009.10,0008.42
2021-09-04 03:57:00,,0831.8,4.99,0.00,30.1,27.4,00.0,39.3,31.3,34.5,0000.9,0013.86,0009.11,0008.43
2021-09-04 03:58:00,,0831.7,5.00,0.00,30.1,27.7,00.0,39.3,31.4,34.4,0000.7,0013.87,0009.14,0008.45
2021-09-04 03:59:00,,0831.6,4.99,0.00,30.1,28.0,00.0,39.2,31.5,34.2,0000.5,0013.84,0009.14,0008.45
